Regional Weather Roundup
Issued by NWS

Home | Current Version | Previous Version | Graphics & Text | Print | Product List | Glossary On
Versions: 1 2 3 4 5 6 7 8 9 10 11 12 13 14 15 16 17 18 19 20 21 22 23 24 25 26 27 28 29 30 31 32 33 34 35 36 37 38 39 40 41 42 43 44 45 46 47 48 49 50
294
ASUS43 KLSX 172207
RWRMO

WEATHER SUMMARY FOR MISSOURI
NATIONAL WEATHER SERVICE SPRINGFIELD MO
400 PM CST FRI NOV 17 2017

NOTE: "FAIR" INDICATES FEW OR NO CLOUDS BELOW 12,000 FEET WITH NO
       SIGNIFICANT WEATHER AND/OR OBSTRUCTIONS TO VISIBILITY.
       CURRENT SKY AND/OR WEATHER CONDITIONS ARE NOT AVAILABLE FOR
       CHILLICOTHE AND FARMINGTON.

MOZ001>031-035>038-043-044-053-054-172300-
...NORTHERN AND WESTERN MISSOURI...

CITY           SKY/WX    TMP DP  RH WIND       PRES   REMARKS
KANSAS CTY INT CLOUDY    68  59  73 S13       29.50S
KANSAS C DTWN  CLOUDY    70  58  65 S13       29.49F
LEE`S SUMMIT   CLOUDY    68  60  75 S17       29.51F
ST JOSEPH      CLOUDY    65  57  75 S7        29.49F
CHILLICOTHE      N/A     58  57  97 E3        29.54F
KIRKSVILLE     CLOUDY    54  53  97 SE12      29.57F

$$
MOZ066>068-077>081-088>096-101>105-172300-
...SOUTHWEST MISSOURI...

CITY           SKY/WX    TMP DP  RH WIND       PRES   REMARKS
SPRINGFIELD    CLOUDY    67  60  78 S15G23    29.62F
JOPLIN         CLOUDY    73  63  70 S18       29.59R
BRANSON        CLOUDY    66  59  77 S14G21    29.68F

$$
MOZ032>034-039>042-045>050-055>058-069>072-172300-
...CENTRAL MISSOURI...

CITY           SKY/WX    TMP DP  RH WIND       PRES   REMARKS
COLUMBIA       CLOUDY    63  55  75 S16G24    29.60F
JEFFERSON CITY CLOUDY    65  55  70 S12       29.61F
ROLLA          CLOUDY    60  55  83 S14       29.66F
SEDALIA        CLOUDY    65  59  81 S18       29.56F
WHITEMAN AFB   MOCLDY    65  58  78 S15       29.50F
WARRENSBURG    CLOUDY    66  57  72 S13       29.53S
OSAGE BEACH    CLOUDY    64  56  75 S12       29.63F

$$
MOZ051-052-059>065-172300-
...EAST CENTRAL MISSOURI...

CITY           SKY/WX    TMP DP  RH WIND       PRES   REMARKS
ST LOUIS INTL  CLOUDY    54  45  71 SE13      29.72F
SPIRIT OF STL  CLOUDY    60  50  69 S8        29.69F
ST CHARLES     CLOUDY    54  44  69 SE13      29.71F

$$
MOZ072>076-082>087-097>100-106>115-172300-
...SOUTH CENTRAL AND SOUTHEAST MISSOURI...

CITY           SKY/WX    TMP DP  RH WIND       PRES   REMARKS
CAPE GIRARDEAU CLOUDY    58  47  66 SE14      29.81F
FARMINGTON     CLOUDY    54  47  77 S13G20    29.76F
POPLAR BLUFF   CLOUDY    65  56  72 S13       29.79F
WEST PLAINS    CLOUDY    59  57  93 S15       29.75F FOG

$$



USA.gov is the U.S. government's official web portal to all federal, state and local government web resources and services.